Time,TemperatureF,DewpointF,PressureIn,WindDirection,WindDirectionDegrees,WindSpeedMPH,WindSpeedGustMPH,Humidity,HourlyPrecipIn,Conditions,Clouds,dailyrainin,SoftwareType,DateUTC
2013-08-06 00:01:00,61.0,57.0,29.96,WNW,296,1.0,1.0,86,0.00,,,0.00,,2013-08-06 07:01:00,
2013-08-06 00:11:00,61.0,57.0,29.96,WNW,296,1.0,1.0,86,0.00,,,0.00,,2013-08-06 07:11:00,
2013-08-06 00:32:00,61.0,57.0,29.96,WNW,296,0.0,0.0,86,0.00,,,0.00,,2013-08-06 07:32:00,
2013-08-06 00:43:00,61.0,57.0,29.96,WNW,296,0.0,0.0,86,0.00,,,0.00,,2013-08-06 07:43:00,
2013-08-06 00:53:00,61.0,57.0,29.96,WSW,257,3.0,3.0,86,0.00,,,0.00,,2013-08-06 07:53:00,
2013-08-06 01:01:00,61.0,57.0,29.96,WSW,257,3.0,3.0,86,0.00,,,0.00,,2013-08-06 08:01:00,
2013-08-06 01:11:00,61.0,57.0,29.96,WSW,257,3.0,3.0,86,0.00,,,0.00,,2013-08-06 08:11:00,
2013-08-06 01:21:00,61.0,57.0,29.96,WSW,257,3.0,3.0,86,0.00,,,0.00,,2013-08-06 08:21:00,
2013-08-06 01:32:00,61.0,57.0,29.96,WSW,257,3.0,3.0,86,0.00,,,0.00,,2013-08-06 08:32:00,
2013-08-06 01:52:00,60.0,56.0,29.97,South,177,0.0,0.0,87,0.00,,,0.00,,2013-08-06 08:52:00,
2013-08-06 02:01:00,60.0,56.0,29.97,South,177,0.0,0.0,87,0.00,,,0.00,,2013-08-06 09:01:00,
2013-08-06 02:11:00,60.0,56.0,29.97,South,177,0.0,0.0,87,0.00,,,0.00,,2013-08-06 09:11:00,
2013-08-06 02:32:00,60.0,56.0,29.97,South,178,0.0,0.0,87,0.00,,,0.00,,2013-08-06 09:32:00,
2013-08-06 02:43:00,60.0,56.0,29.97,South,178,0.0,0.0,87,0.00,,,0.00,,2013-08-06 09:43:00,
2013-08-06 02:52:00,60.0,56.0,29.97,South,184,5.0,5.0,87,0.00,,,0.00,,2013-08-06 09:52:00,
2013-08-06 03:01:00,60.0,56.0,29.97,South,184,5.0,5.0,87,0.00,,,0.00,,2013-08-06 10:01:00,
2013-08-06 03:11:00,60.0,56.0,29.97,South,184,5.0,5.0,87,0.00,,,0.00,,2013-08-06 10:11:00,
2013-08-06 03:22:00,60.0,56.0,29.97,South,184,5.0,5.0,87,0.00,,,0.00,,2013-08-06 10:22:00,
2013-08-06 03:32:00,60.0,56.0,29.97,South,184,5.0,5.0,87,0.00,,,0.00,,2013-08-06 10:32:00,
2013-08-06 03:53:00,60.0,57.0,29.97,South,186,0.0,0.0,89,0.00,,,0.00,,2013-08-06 10:53:00,
2013-08-06 04:01:00,60.0,57.0,29.97,South,186,0.0,0.0,89,0.00,,,0.00,,2013-08-06 11:01:00,
2013-08-06 04:11:00,60.0,57.0,29.97,South,186,0.0,0.0,89,0.00,,,0.00,,2013-08-06 11:11:00,
2013-08-06 04:21:00,59.0,56.0,29.97,South,186,4.0,4.0,89,0.00,,,0.00,,2013-08-06 11:21:00,
2013-08-06 04:32:00,59.0,56.0,29.97,South,186,4.0,4.0,89,0.00,,,0.00,,2013-08-06 11:32:00,
2013-08-06 04:43:00,59.0,56.0,29.97,South,186,4.0,4.0,89,0.00,,,0.00,,2013-08-06 11:43:00,
2013-08-06 04:53:00,59.0,56.0,29.97,South,184,4.0,4.0,89,0.00,,,0.00,,2013-08-06 11:53:00,
2013-08-06 05:01:00,59.0,56.0,29.97,South,184,4.0,4.0,89,0.00,,,0.00,,2013-08-06 12:01:00,
2013-08-06 05:11:00,59.0,56.0,29.97,South,184,4.0,4.0,89,0.00,,,0.00,,2013-08-06 12:11:00,
2013-08-06 05:21:00,59.0,56.0,29.97,South,184,4.0,4.0,89,0.00,,,0.00,,2013-08-06 12:21:00,
2013-08-06 05:31:00,59.0,56.0,29.97,South,184,4.0,4.0,89,0.00,,,0.00,,2013-08-06 12:31:00,
2013-08-06 07:01:00,60.0,56.0,29.99,ENE,66,2.0,2.0,86,0.00,,,0.00,,2013-08-06 14:01:00,
2013-08-06 07:11:00,60.0,56.0,29.99,ENE,66,2.0,2.0,86,0.00,,,0.00,,2013-08-06 14:11:00,
2013-08-06 07:21:00,60.0,56.0,29.99,ENE,66,2.0,2.0,86,0.00,,,0.00,,2013-08-06 14:21:00,
2013-08-06 07:32:00,60.0,56.0,29.99,ENE,66,2.0,2.0,86,0.00,,,0.00,,2013-08-06 14:32:00,
2013-08-06 08:23:00,60.0,55.0,30.02,SSE,164,1.0,1.0,84,0.00,,,0.00,,2013-08-06 15:23:00,
2013-08-06 08:33:00,60.0,55.0,30.02,SSE,164,1.0,1.0,84,0.00,,,0.00,,2013-08-06 15:33:00,
2013-08-06 08:44:00,60.0,55.0,30.02,SSE,164,1.0,1.0,84,0.00,,,0.00,,2013-08-06 15:44:00,
2013-08-06 08:52:00,60.0,55.0,30.02,SSE,164,1.0,1.0,84,0.00,,,0.00,,2013-08-06 15:52:00,
2013-08-06 09:01:00,60.0,55.0,30.02,SSE,164,1.0,1.0,84,0.00,,,0.00,,2013-08-06 16:01:00,
2013-08-06 09:22:00,61.0,55.0,30.03,SSE,166,1.0,1.0,82,0.00,,,0.00,,2013-08-06 16:22:00,
2013-08-06 09:32:00,61.0,55.0,30.03,SSE,166,1.0,1.0,82,0.00,,,0.00,,2013-08-06 16:32:00,
2013-08-06 09:43:00,61.0,55.0,30.03,SSE,166,1.0,1.0,82,0.00,,,0.00,,2013-08-06 16:43:00,
2013-08-06 09:52:00,61.0,55.0,30.03,SSE,166,1.0,1.0,82,0.00,,,0.00,,2013-08-06 16:52:00,
2013-08-06 10:01:00,61.0,55.0,30.03,SSE,166,1.0,1.0,82,0.00,,,0.00,,2013-08-06 17:01:00,
2013-08-06 10:32:00,63.0,55.0,30.05,SW,229,6.0,6.0,75,0.00,,,0.00,,2013-08-06 17:32:00,
2013-08-06 10:44:00,63.0,55.0,30.05,SW,229,6.0,6.0,75,0.00,,,0.00,,2013-08-06 17:44:00,
2013-08-06 10:52:00,63.0,55.0,30.05,SW,229,6.0,6.0,75,0.00,,,0.00,,2013-08-06 17:52:00,
2013-08-06 11:01:00,63.0,55.0,30.05,SW,229,6.0,6.0,75,0.00,,,0.00,,2013-08-06 18:01:00,
2013-08-06 11:32:00,68.0,56.0,30.04,SSW,209,0.0,0.0,66,0.00,,,0.00,,2013-08-06 18:32:00,
2013-08-06 11:43:00,68.0,56.0,30.04,SSW,209,0.0,0.0,66,0.00,,,0.00,,2013-08-06 18:43:00,
2013-08-06 11:52:00,68.0,56.0,30.04,SSW,209,0.0,0.0,66,0.00,,,0.00,,2013-08-06 18:52:00,
2013-08-06 12:01:00,68.0,56.0,30.04,SSW,209,0.0,0.0,66,0.00,,,0.00,,2013-08-06 19:01:00,
2013-08-06 12:52:00,70.0,57.0,30.03,WSW,257,9.0,9.0,63,0.00,,,0.00,,2013-08-06 19:52:00,
2013-08-06 13:01:00,70.0,57.0,30.03,WSW,257,9.0,9.0,63,0.00,,,0.00,,2013-08-06 20:01:00,
2013-08-06 13:11:00,70.0,57.0,30.03,WSW,257,9.0,9.0,63,0.00,,,0.00,,2013-08-06 20:11:00,
2013-08-06 13:32:00,71.0,57.0,30.03,WSW,246,3.0,3.0,62,0.00,,,0.00,,2013-08-06 20:32:00,
2013-08-06 13:44:00,71.0,57.0,30.03,WSW,246,3.0,3.0,62,0.00,,,0.00,,2013-08-06 20:44:00,
2013-08-06 13:52:00,70.0,56.0,30.03,West,277,6.0,6.0,62,0.00,,,0.00,,2013-08-06 20:52:00,
2013-08-06 14:01:00,70.0,56.0,30.03,West,277,6.0,6.0,62,0.00,,,0.00,,2013-08-06 21:01:00,
2013-08-06 14:11:00,70.0,56.0,30.03,West,277,6.0,6.0,62,0.00,,,0.00,,2013-08-06 21:11:00,
2013-08-06 14:32:00,70.0,56.0,30.02,SSW,203,11.0,11.0,61,0.00,,,0.00,,2013-08-06 21:32:00,
2013-08-06 14:43:00,70.0,56.0,30.02,SSW,203,11.0,11.0,61,0.00,,,0.00,,2013-08-06 21:43:00,
2013-08-06 14:52:00,70.0,56.0,30.02,SSW,203,11.0,11.0,61,0.00,,,0.00,,2013-08-06 21:52:00,
2013-08-06 15:01:00,70.0,56.0,30.02,SSW,203,11.0,11.0,61,0.00,,,0.00,,2013-08-06 22:01:00,
2013-08-06 15:22:00,68.0,57.0,30.02,WNW,291,7.0,7.0,67,0.00,,,0.00,,2013-08-06 22:22:00,
2013-08-06 15:32:00,68.0,57.0,30.02,WNW,291,7.0,7.0,67,0.00,,,0.00,,2013-08-06 22:32:00,
2013-08-06 15:43:00,68.0,57.0,30.02,WNW,291,7.0,7.0,67,0.00,,,0.00,,2013-08-06 22:43:00,
2013-08-06 15:53:00,68.0,57.0,30.02,WNW,291,7.0,7.0,67,0.00,,,0.00,,2013-08-06 22:53:00,
2013-08-06 16:01:00,68.0,57.0,30.02,WNW,291,7.0,7.0,67,0.00,,,0.00,,2013-08-06 23:01:00,
2013-08-06 18:32:00,64.0,56.0,30.00,NW,312,6.0,6.0,76,0.00,,,0.00,,2013-08-07 01:32:00,
2013-08-06 18:43:00,64.0,56.0,30.00,NW,312,6.0,6.0,76,0.00,,,0.00,,2013-08-07 01:43:00,
2013-08-06 18:52:00,64.0,56.0,29.99,West,268,6.0,6.0,76,0.00,,,0.00,,2013-08-07 01:52:00,
2013-08-06 19:01:00,64.0,56.0,29.99,West,268,6.0,6.0,76,0.00,,,0.00,,2013-08-07 02:01:00,
2013-08-06 19:11:00,64.0,56.0,29.99,West,268,6.0,6.0,76,0.00,,,0.00,,2013-08-07 02:11:00,
2013-08-06 19:21:00,64.0,56.0,29.99,West,268,6.0,6.0,76,0.00,,,0.00,,2013-08-07 02:21:00,
2013-08-06 19:33:00,64.0,56.0,29.99,West,268,6.0,6.0,76,0.00,,,0.00,,2013-08-07 02:33:00,
2013-08-06 19:53:00,62.0,56.0,30.01,West,279,6.0,6.0,80,0.00,,,0.00,,2013-08-07 02:53:00,
2013-08-06 20:01:00,62.0,56.0,30.01,West,279,6.0,6.0,80,0.00,,,0.00,,2013-08-07 03:01:00,
2013-08-06 20:11:00,62.0,56.0,30.01,West,279,6.0,6.0,80,0.00,,,0.00,,2013-08-07 03:11:00,
2013-08-06 20:22:00,62.0,56.0,30.01,West,279,6.0,6.0,80,0.00,,,0.00,,2013-08-07 03:22:00,
2013-08-06 20:32:00,62.0,56.0,30.01,West,279,6.0,6.0,80,0.00,,,0.00,,2013-08-07 03:32:00,
2013-08-06 20:52:00,62.0,56.0,30.00,WNW,286,2.0,2.0,82,0.00,,,0.00,,2013-08-07 03:52:00,
2013-08-06 21:01:00,62.0,56.0,30.00,WNW,286,2.0,2.0,82,0.00,,,0.00,,2013-08-07 04:01:00,
2013-08-06 21:11:00,62.0,56.0,30.00,WNW,286,2.0,2.0,82,0.00,,,0.00,,2013-08-07 04:11:00,
2013-08-06 21:21:00,62.0,56.0,30.00,WNW,286,2.0,2.0,82,0.00,,,0.00,,2013-08-07 04:21:00,
2013-08-06 21:33:00,62.0,56.0,30.00,WNW,286,2.0,2.0,82,0.00,,,0.00,,2013-08-07 04:33:00,
2013-08-06 22:22:00,61.0,56.0,30.02,WNW,288,0.0,0.0,84,0.00,,,0.00,,2013-08-07 05:22:00,
2013-08-06 22:32:00,61.0,56.0,30.02,WNW,288,0.0,0.0,84,0.00,,,0.00,,2013-08-07 05:32:00,
2013-08-06 22:43:00,61.0,56.0,30.02,WNW,288,0.0,0.0,84,0.00,,,0.00,,2013-08-07 05:43:00,
2013-08-06 22:52:00,61.0,56.0,30.02,West,261,0.0,0.0,85,0.00,,,0.00,,2013-08-07 05:52:00,
2013-08-06 23:02:00,61.0,56.0,30.02,West,261,0.0,0.0,85,0.00,,,0.00,,2013-08-07 06:02:00,
2013-08-06 23:11:00,61.0,56.0,30.02,West,261,0.0,0.0,85,0.00,,,0.00,,2013-08-07 06:11:00,
2013-08-06 23:22:00,61.0,56.0,30.02,West,261,0.0,0.0,85,0.00,,,0.00,,2013-08-07 06:22:00,
2013-08-06 23:32:00,61.0,56.0,30.02,West,261,0.0,0.0,85,0.00,,,0.00,,2013-08-07 06:32:00,